CAS9226 FOOL-FZAA

Flight info

Callsign CAS9226
Flight time 1h 16m
Altitude 37000
Route PONOT DCT UBUVA UG856 BZ DCT BELGU BELGU1A
Aircraft B738/M-SDE2E3FGHIRWXY/LB1

Departure

Time 2026-04-26 16:20
Airport Libreville Leon M'ba International Airport (FOOL)

Arrival

Time 2026-04-26 17:36
Airport Ndjili International Airport (FZAA)
Time Latitude Longitude Altitude Speed Heading
2026-04-26 16:17 0.44934 9.41676 32 ft 23 kts 155°
2026-04-26 16:17 0.44794 9.41745 34 ft 22 kts 153°
2026-04-26 16:18 0.44667 9.41770 33 ft 17 kts 170°
2026-04-26 16:18 0.44675 9.41811 32 ft 5 kts 311°
2026-04-26 16:19 0.44705 9.41787 33 ft 0 kts 333°
2026-04-26 16:19 0.45398 9.41453 34 ft 149 kts 334°
2026-04-26 16:20 0.46927 9.40734 874 ft 205 kts 334°
2026-04-26 16:20 0.49634 9.39454 2984 ft 221 kts 334°
2026-04-26 16:20 0.51078 9.38759 3409 ft 236 kts 333°
2026-04-26 16:21 0.52623 9.38133 3846 ft 245 kts 349°
2026-04-26 16:21 0.54293 9.38373 4444 ft 249 kts 26°
2026-04-26 16:21 0.55637 9.39538 4872 ft 267 kts 56°
2026-04-26 16:21 0.56293 9.41289 5545 ft 274 kts 84°
2026-04-26 16:22 0.56232 9.42541 6093 ft 274 kts 102°
2026-04-26 16:22 0.55364 9.44242 6805 ft 280 kts 134°
2026-04-26 16:22 0.53209 9.45669 7881 ft 282 kts 153°
2026-04-26 16:22 0.51435 9.46547 8685 ft 286 kts 154°
2026-04-26 16:23 0.50257 9.47141 9276 ft 286 kts 153°
2026-04-26 16:23 0.48484 9.48058 9773 ft 288 kts 153°
2026-04-26 16:23 0.46707 9.48999 9985 ft 290 kts 152°
2026-04-26 16:23 0.44932 9.49954 9995 ft 290 kts 152°
2026-04-26 16:24 0.43157 9.50917 10004 ft 290 kts 152°
2026-04-26 16:24 0.41385 9.51881 10014 ft 290 kts 152°
2026-04-26 16:24 0.39608 9.52848 10011 ft 291 kts 152°
2026-04-26 16:24 0.37830 9.53815 10001 ft 291 kts 152°
2026-04-26 16:25 0.36075 9.54823 9994 ft 291 kts 144°
2026-04-26 16:25 0.34636 9.56238 10017 ft 290 kts 130°
2026-04-26 16:25 0.33362 9.57810 9998 ft 291 kts 128°
2026-04-26 16:25 0.32091 9.59422 10076 ft 304 kts 128°
2026-04-26 16:26 0.30730 9.61150 10282 ft 329 kts 128°
2026-04-26 16:26 0.29257 9.63011 10473 ft 353 kts 128°
2026-04-26 16:26 0.27696 9.64973 10910 ft 366 kts 129°
2026-04-26 16:26 0.26094 9.66978 11604 ft 371 kts 129°
2026-04-26 16:27 0.24476 9.68996 12369 ft 373 kts 129°
2026-04-26 16:27 0.22843 9.71028 13116 ft 377 kts 129°
2026-04-26 16:27 0.21190 9.73083 13850 ft 381 kts 129°
2026-04-26 16:27 0.19538 9.75135 14578 ft 386 kts 129°
2026-04-26 16:28 0.17845 9.77236 15316 ft 390 kts 129°
2026-04-26 16:28 0.16137 9.79356 16049 ft 393 kts 129°
2026-04-26 16:28 0.14413 9.81496 16749 ft 397 kts 129°
2026-04-26 16:28 0.12670 9.83659 17423 ft 402 kts 129°
2026-04-26 16:29 0.10911 9.85843 18075 ft 406 kts 129°
2026-04-26 16:29 0.09133 9.88049 18716 ft 409 kts 129°
2026-04-26 16:29 0.07340 9.90276 19338 ft 413 kts 129°
2026-04-26 16:29 0.05526 9.92527 19939 ft 417 kts 129°
2026-04-26 16:30 0.03699 9.94795 20516 ft 421 kts 129°
2026-04-26 16:30 0.01855 9.97084 21083 ft 424 kts 129°
2026-04-26 16:30 -0.00002 9.99387 21619 ft 428 kts 129°
2026-04-26 16:30 -0.01882 10.01712 22140 ft 431 kts 129°
2026-04-26 16:31 -0.03773 10.04049 22639 ft 435 kts 129°
2026-04-26 16:31 -0.05680 10.06405 23126 ft 438 kts 129°
2026-04-26 16:31 -0.07579 10.08753 23593 ft 441 kts 129°
2026-04-26 16:31 -0.09518 10.11149 24051 ft 444 kts 129°
2026-04-26 16:32 -0.11467 10.13560 24497 ft 447 kts 129°
2026-04-26 16:32 -0.12791 10.15198 24787 ft 449 kts 129°
2026-04-26 16:32 -0.15401 10.18428 25327 ft 453 kts 129°
2026-04-26 16:32 -0.17385 10.20882 25730 ft 456 kts 129°
2026-04-26 16:33 -0.19385 10.23357 26113 ft 458 kts 129°
2026-04-26 16:33 -0.21394 10.25843 26481 ft 461 kts 129°
2026-04-26 16:33 -0.23420 10.28350 26839 ft 463 kts 129°
2026-04-26 16:33 -0.25452 10.30863 27183 ft 466 kts 129°
2026-04-26 16:34 -0.27490 10.33385 27519 ft 468 kts 129°
2026-04-26 16:34 -0.29516 10.35892 27841 ft 470 kts 129°
2026-04-26 16:34 -0.31578 10.38443 28154 ft 473 kts 129°
2026-04-26 16:34 -0.33650 10.41007 28454 ft 475 kts 129°
2026-04-26 16:35 -0.35731 10.43582 28759 ft 476 kts 129°
2026-04-26 16:35 -0.37812 10.46157 29169 ft 475 kts 129°
2026-04-26 16:35 -0.39885 10.48723 29630 ft 473 kts 129°
2026-04-26 16:35 -0.41952 10.51280 30066 ft 472 kts 129°
2026-04-26 16:36 -0.44013 10.53830 30458 ft 471 kts 129°
2026-04-26 16:36 -0.46076 10.56383 30822 ft 471 kts 129°
2026-04-26 16:36 -0.48134 10.58930 31198 ft 470 kts 129°
2026-04-26 16:36 -0.50188 10.61471 31585 ft 470 kts 129°
2026-04-26 16:37 -0.52236 10.64006 31925 ft 469 kts 129°
2026-04-26 16:37 -0.54287 10.66543 32268 ft 469 kts 129°
2026-04-26 16:37 -0.56312 10.69050 32619 ft 469 kts 129°
2026-04-26 16:37 -0.58356 10.71579 33000 ft 467 kts 129°
2026-04-26 16:38 -0.60401 10.74109 33349 ft 467 kts 129°
2026-04-26 16:38 -0.62446 10.76641 33654 ft 467 kts 129°
2026-04-26 16:38 -0.64486 10.79165 33959 ft 467 kts 129°
2026-04-26 16:38 -0.66527 10.81690 34241 ft 467 kts 129°
2026-04-26 16:39 -0.68568 10.84217 34582 ft 466 kts 129°
2026-04-26 16:39 -0.70603 10.86736 34947 ft 464 kts 129°
2026-04-26 16:39 -0.72630 10.89244 35248 ft 464 kts 129°
2026-04-26 16:39 -0.74657 10.91752 35533 ft 464 kts 129°
2026-04-26 16:40 -0.76685 10.94262 35790 ft 464 kts 129°
2026-04-26 16:40 -0.78684 10.96736 36076 ft 463 kts 129°
2026-04-26 16:40 -0.80709 10.99243 36363 ft 462 kts 129°
2026-04-26 16:40 -0.82650 11.01645 36605 ft 463 kts 129°
2026-04-26 16:41 -0.84681 11.04159 36797 ft 464 kts 129°
2026-04-26 16:41 -0.86708 11.06668 37019 ft 464 kts 129°
2026-04-26 16:41 -0.90783 11.11712 37002 ft 467 kts 129°
2026-04-26 16:42 -0.94824 11.16715 36991 ft 462 kts 129°
2026-04-26 16:42 -0.98849 11.21697 37000 ft 459 kts 129°
2026-04-26 16:43 -1.02857 11.26659 37002 ft 458 kts 129°
2026-04-26 16:43 -1.06864 11.31619 37002 ft 458 kts 129°
2026-04-26 16:44 -1.10868 11.36577 37003 ft 459 kts 129°
2026-04-26 16:44 -1.14881 11.41545 37004 ft 460 kts 129°
2026-04-26 16:45 -1.18910 11.46533 37002 ft 462 kts 129°
2026-04-26 16:45 -1.22954 11.51541 37003 ft 463 kts 129°
2026-04-26 16:46 -1.26989 11.56537 37002 ft 465 kts 129°
2026-04-26 16:46 -1.31056 11.61574 37001 ft 466 kts 129°
2026-04-26 16:47 -1.35132 11.66622 37000 ft 467 kts 129°
2026-04-26 16:47 -1.39212 11.71675 37002 ft 467 kts 129°
2026-04-26 16:48 -1.43287 11.76723 37001 ft 467 kts 129°
2026-04-26 16:48 -1.47366 11.81775 37001 ft 466 kts 129°
2026-04-26 16:49 -1.51437 11.86818 37000 ft 466 kts 129°
2026-04-26 16:49 -1.55509 11.91863 37002 ft 466 kts 129°
2026-04-26 16:50 -1.59575 11.96900 37000 ft 465 kts 129°
2026-04-26 16:50 -1.63566 12.01845 37001 ft 465 kts 129°
2026-04-26 16:51 -1.67600 12.06844 37002 ft 465 kts 129°
2026-04-26 16:51 -1.71667 12.11883 37001 ft 465 kts 129°
2026-04-26 16:52 -1.75042 12.16066 37002 ft 465 kts 129°
2026-04-26 16:52 -1.79795 12.21957 37002 ft 465 kts 129°
2026-04-26 16:53 -1.83857 12.26992 37002 ft 465 kts 129°
2026-04-26 16:53 -1.87896 12.31997 37002 ft 465 kts 129°
2026-04-26 16:54 -1.91964 12.37041 37001 ft 465 kts 129°
2026-04-26 16:54 -1.96026 12.42078 37001 ft 465 kts 129°
2026-04-26 16:55 -2.00087 12.47112 37002 ft 465 kts 129°
2026-04-26 16:55 -2.04147 12.52147 37000 ft 465 kts 129°
2026-04-26 16:56 -2.10241 12.59705 37000 ft 465 kts 129°
2026-04-26 16:57 -2.14306 12.64746 37002 ft 465 kts 129°
2026-04-26 16:57 -2.20362 12.72258 37001 ft 465 kts 129°
2026-04-26 16:58 -2.23762 12.76477 37002 ft 465 kts 129°
2026-04-26 16:59 -2.30505 12.84844 37000 ft 464 kts 129°
2026-04-26 17:00 -2.38614 12.94907 37002 ft 464 kts 129°
2026-04-26 17:00 -2.44620 13.02364 37003 ft 464 kts 129°
2026-04-26 17:01 -2.48654 13.07358 37001 ft 464 kts 129°
2026-04-26 17:01 -2.52734 13.12364 37002 ft 464 kts 129°
2026-04-26 17:02 -2.56821 13.17374 37001 ft 464 kts 129°
2026-04-26 17:02 -2.60906 13.22388 37001 ft 465 kts 129°
2026-04-26 17:03 -2.64986 13.27401 37003 ft 465 kts 129°
2026-04-26 17:03 -2.69066 13.32415 37000 ft 465 kts 129°
2026-04-26 17:04 -2.73148 13.37433 37001 ft 464 kts 129°
2026-04-26 17:04 -2.77225 13.42445 37000 ft 464 kts 129°
2026-04-26 17:05 -2.81276 13.47424 37001 ft 464 kts 129°
2026-04-26 17:05 -2.85349 13.52431 37002 ft 464 kts 129°
2026-04-26 17:06 -2.89426 13.57445 37002 ft 464 kts 129°
2026-04-26 17:06 -2.93503 13.62459 37000 ft 464 kts 129°
2026-04-26 17:07 -2.97576 13.67468 37002 ft 464 kts 129°
2026-04-26 17:07 -3.01644 13.72473 37000 ft 464 kts 129°
2026-04-26 17:08 -3.05724 13.77493 37002 ft 464 kts 129°
2026-04-26 17:08 -3.09769 13.82469 37001 ft 464 kts 129°
2026-04-26 17:09 -3.12497 13.85827 37001 ft 464 kts 129°
2026-04-26 17:09 -3.17926 13.92507 37002 ft 464 kts 129°
2026-04-26 17:10 -3.21995 13.97517 37002 ft 464 kts 129°
2026-04-26 17:10 -3.25326 14.01617 37001 ft 464 kts 129°
2026-04-26 17:11 -3.30064 14.07452 37001 ft 464 kts 129°
2026-04-26 17:11 -3.34135 14.12465 37001 ft 464 kts 129°
2026-04-26 17:12 -3.39552 14.19137 37001 ft 464 kts 129°
2026-04-26 17:13 -3.45655 14.26655 37001 ft 464 kts 129°
2026-04-26 17:14 -3.51760 14.34178 37002 ft 464 kts 129°
2026-04-26 17:14 -3.57864 14.41701 37001 ft 464 kts 129°
2026-04-26 17:15 -3.63930 14.49180 37001 ft 463 kts 129°
2026-04-26 17:16 -3.67995 14.54191 37001 ft 463 kts 129°
2026-04-26 17:16 -3.72073 14.59220 36524 ft 469 kts 129°
2026-04-26 17:16 -3.74123 14.61750 35940 ft 465 kts 129°
2026-04-26 17:17 -3.76163 14.64266 35230 ft 465 kts 129°
2026-04-26 17:17 -3.78200 14.66779 34508 ft 465 kts 129°
2026-04-26 17:17 -3.80237 14.69292 33757 ft 465 kts 129°
2026-04-26 17:17 -3.82274 14.71805 32988 ft 465 kts 129°
2026-04-26 17:18 -3.84315 14.74324 32189 ft 465 kts 129°
2026-04-26 17:18 -3.86350 14.76835 31363 ft 463 kts 129°
2026-04-26 17:18 -3.88370 14.79328 30508 ft 458 kts 129°
2026-04-26 17:18 -3.90364 14.81789 29642 ft 453 kts 129°
2026-04-26 17:19 -3.95046 14.85831 27760 ft 444 kts 156°
2026-04-26 17:19 -3.97955 14.86794 26923 ft 440 kts 166°
2026-04-26 17:19 -4.00914 14.87466 26392 ft 443 kts 168°
2026-04-26 17:20 -4.03984 14.88096 25880 ft 458 kts 169°
2026-04-26 17:20 -4.06071 14.88512 25536 ft 465 kts 169°
2026-04-26 17:20 -4.10235 14.89335 24946 ft 441 kts 169°
2026-04-26 17:20 -4.13157 14.89909 24089 ft 432 kts 169°
2026-04-26 17:21 -4.16105 14.90485 23293 ft 433 kts 169°
2026-04-26 17:21 -4.19134 14.90691 22541 ft 441 kts 187°
2026-04-26 17:21 -4.22127 14.90060 21868 ft 436 kts 195°
2026-04-26 17:21 -4.25062 14.89328 21142 ft 431 kts 193°
2026-04-26 17:22 -4.27985 14.88736 20455 ft 425 kts 190°
2026-04-26 17:22 -4.30894 14.88291 19768 ft 420 kts 187°
2026-04-26 17:22 -4.33779 14.87955 19085 ft 415 kts 186°
2026-04-26 17:22 -4.36641 14.87680 18405 ft 410 kts 185°
2026-04-26 17:23 -4.39467 14.87436 17735 ft 406 kts 185°
2026-04-26 17:23 -4.42270 14.87201 17053 ft 402 kts 185°
2026-04-26 17:23 -4.45038 14.86969 16426 ft 396 kts 185°
2026-04-26 17:23 -4.47771 14.86737 15777 ft 392 kts 185°
2026-04-26 17:24 -4.50489 14.86503 14901 ft 393 kts 185°
2026-04-26 17:24 -4.53218 14.86266 14062 ft 394 kts 185°
2026-04-26 17:24 -4.55903 14.86032 13374 ft 390 kts 185°
2026-04-26 17:24 -4.58592 14.85798 12711 ft 385 kts 185°
2026-04-26 17:25 -4.61244 14.85567 12031 ft 381 kts 185°
2026-04-26 17:25 -4.63874 14.85337 11338 ft 377 kts 185°
2026-04-26 17:25 -4.66462 14.85114 10955 ft 367 kts 184°
2026-04-26 17:25 -4.68942 14.85306 10739 ft 352 kts 163°
2026-04-26 17:26 -4.71076 14.86387 10598 ft 338 kts 143°
2026-04-26 17:26 -4.72671 14.88043 10453 ft 325 kts 124°
2026-04-26 17:26 -4.73654 14.90037 10303 ft 314 kts 107°
2026-04-26 17:26 -4.73991 14.92157 10150 ft 304 kts 90°
2026-04-26 17:27 -4.73758 14.94222 10020 ft 294 kts 77°
2026-04-26 17:27 -4.73082 14.96106 9905 ft 283 kts 62°
2026-04-26 17:27 -4.71965 14.97756 9487 ft 285 kts 52°
2026-04-26 17:27 -4.70744 14.99324 9142 ft 285 kts 51°
2026-04-26 17:28 -4.69560 15.00818 8846 ft 283 kts 51°
2026-04-26 17:28 -4.68340 15.02360 8539 ft 281 kts 51°
2026-04-26 17:28 -4.67142 15.03878 8240 ft 279 kts 51°
2026-04-26 17:28 -4.65943 15.05405 7939 ft 278 kts 51°
2026-04-26 17:29 -4.64754 15.06922 7641 ft 276 kts 51°
2026-04-26 17:29 -4.63969 15.07925 7448 ft 275 kts 51°
2026-04-26 17:29 -4.62398 15.09937 7050 ft 272 kts 52°
2026-04-26 17:29 -4.61232 15.11430 6757 ft 271 kts 52°
2026-04-26 17:30 -4.60073 15.12915 6466 ft 269 kts 52°
2026-04-26 17:30 -4.58924 15.14388 6179 ft 268 kts 52°
2026-04-26 17:30 -4.57780 15.15854 5889 ft 266 kts 52°
2026-04-26 17:30 -4.56641 15.17314 5608 ft 265 kts 52°
2026-04-26 17:31 -4.55509 15.18764 5314 ft 263 kts 52°
2026-04-26 17:31 -4.54390 15.20198 5191 ft 257 kts 52°
2026-04-26 17:31 -4.53310 15.21585 5078 ft 249 kts 52°
2026-04-26 17:31 -4.52341 15.23003 4917 ft 243 kts 57°
2026-04-26 17:32 -4.51457 15.24400 4772 ft 238 kts 57°
2026-04-26 17:32 -4.50576 15.25788 4609 ft 233 kts 57°
2026-04-26 17:32 -4.49711 15.27141 4456 ft 228 kts 57°
2026-04-26 17:32 -4.48862 15.28465 4295 ft 224 kts 57°
2026-04-26 17:33 -4.48016 15.29782 4020 ft 225 kts 57°
2026-04-26 17:33 -4.47165 15.31107 3752 ft 226 kts 57°
2026-04-26 17:33 -4.46311 15.32433 3456 ft 227 kts 57°
2026-04-26 17:34 -4.44645 15.35018 3115 ft 208 kts 57°
2026-04-26 17:34 -4.43888 15.36194 2982 ft 198 kts 57°
2026-04-26 17:34 -4.43155 15.37364 2620 ft 196 kts 57°
2026-04-26 17:34 -4.42399 15.38490 2078 ft 194 kts 54°
2026-04-26 17:35 -4.41696 15.39569 1719 ft 177 kts 58°
2026-04-26 17:35 -4.41085 15.40548 1579 ft 154 kts 57°
2026-04-26 17:35 -4.40542 15.41410 1352 ft 144 kts 57°
2026-04-26 17:35 -4.39998 15.42237 1157 ft 142 kts 54°
2026-04-26 17:36 -4.39454 15.43065 1020 ft 141 kts 55°
2026-04-26 17:36 -4.39007 15.43764 1029 ft 89 kts 57°
2026-04-26 17:36 -4.38745 15.44170 1028 ft 31 kts 57°
2026-04-26 17:36 -4.38631 15.44347 1030 ft 28 kts 57°
2026-04-26 17:37 -4.38585 15.44449 1031 ft 13 kts 99°
2026-04-26 17:37 -4.38642 15.44501 1032 ft 7 kts 149°
2026-04-26 17:37 -4.38663 15.44514 1032 ft 3 kts 148°
2026-04-26 17:38 -4.38702 15.44540 1032 ft 0 kts 147°
2026-04-26 17:38 -4.38712 15.44545 1032 ft 4 kts 161°
2026-04-26 17:39 -4.38752 15.44538 1031 ft 8 kts 195°
2026-04-26 17:39 -4.38820 15.44520 1031 ft 11 kts 194°
2026-04-26 17:39 -4.38882 15.44505 1032 ft 6 kts 194°
2026-04-26 17:39 -4.38892 15.44502 1032 ft 0 kts 194°